DW7902 Weather Reports


Display with metric or nautical units.
time (UTC)temp
F
wind
direction
speed
MPH
gust
MPH
rain 1hr
in
rain 24hr
in
rain mn
in
humidity
%
barometer
mb
20181219020410 59 152 4.0 5.0 0.00 0.00 0.00 72 1025.3
20181219020022 59 161 2.0 6.0 0.00 0.00 0.00 71 1025.4
20181219015904 59 161 3.0 6.0 0.00 0.00 0.00 71 1025.3
20181219015400 59 154 4.0 7.0 0.00 0.00 0.00 71 1025.3
20181219014858 59 161 4.0 7.0 0.00 0.00 0.00 71 1025.2
20181219014355 59 153 4.0 6.0 0.00 0.00 0.00 70 1025.2
20181219013913 59 133 3.0 7.0 0.00 0.00 0.00 70 1025.2
20181219013409 59 153 4.0 7.0 0.00 0.00 0.00 70 1025.1
20181219013019 59 145 4.0 7.0 0.00 0.00 0.00 70 1025.1
20181219012904 59 155 5.0 7.0 0.00 0.00 0.00 70 1025.2
20181219012358 60 170 4.0 7.0 0.00 0.00 0.00 70 1025.2
20181219011857 60 156 5.0 7.0 0.00 0.00 0.00 69 1025.2
20181219011524 59 142 4.0 6.0 0.00 0.00 0.00 69 1025.3
20181219011408 60 167 4.0 6.0 0.00 0.00 0.00 69 1025.3
20181219010912 60 143 3.0 4.0 0.00 0.00 0.00 69 1025.3
20181219010408 60 144 2.0 4.0 0.00 0.00 0.00 69 1025.3
20181219010016 59 120 1.0 6.0 0.00 0.00 0.00 69 1025.3
20181219005905 60 120 1.0 7.0 0.00 0.00 0.00 69 1025.3
20181219005418 60 170 4.0 7.0 0.00 0.00 0.00 69 1025.3
20181219004908 60 189 4.0 7.0 0.00 0.00 0.00 69 1025.2
20181219004513 60 159 4.0 7.0 0.00 0.00 0.00 69 1025.3
20181219004405 60 178 5.0 7.0 0.00 0.00 0.00 69 1025.3
20181219003908 60 158 5.0 8.0 0.00 0.00 0.00 69 1025.3
20181219003407 61 161 6.0 8.0 0.00 0.00 0.00 68 1025.3
20181219003011 60 151 5.0 8.0 0.00 0.00 0.00 69 1025.4
20181219002904 61 168 5.0 8.0 0.00 0.00 0.00 69 1025.3
20181219002402 61 153 6.0 8.0 0.00 0.00 0.00 69 1025.4
20181219001858 61 175 4.0 9.0 0.00 0.00 0.00 69 1025.4
20181219001608 61 164 5.0 9.0 0.00 0.00 0.00 68 1025.4
20181219001412 61 165 5.0 9.0 0.00 0.00 0.00 68 1025.4
20181219000909 61 171 4.0 9.0 0.00 0.00 0.00 67 1025.4
20181219000406 61 155 5.0 9.0 0.00 0.00 0.00 65 1025.5
20181218235858 62 190 4.0 9.0 0.00 0.00 0.00 64 1025.5
20181218235408 61 173 5.0 10.0 0.00 0.00 0.00 63 1025.5
20181218234903 61 180 6.0 10.0 0.00 0.00 0.00 63 1025.5
20181218234503 61 179 5.0 9.0 0.00 0.00 0.00 63 1025.5
20181218234400 61 168 6.0 9.0 0.00 0.00 0.00 63 1025.4
20181218233859 61 186 5.0 9.0 0.00 0.00 0.00 64 1025.3
20181218233408 61 189 6.0 9.0 0.00 0.00 0.00 62 1025.4
20181218233011 61 152 6.0 10.0 0.00 0.00 0.00 63 1025.4
20181218232904 61 160 6.0 10.0 0.00 0.00 0.00 63 1025.4
20181218232401 61 159 5.0 10.0 0.00 0.00 0.00 62 1025.4
20181218231859 61 169 6.0 10.0 0.00 0.00 0.00 63 1025.5
20181218231501 61 176 5.0 8.0 0.00 0.00 0.00 62 1025.4
20181218231359 61 170 6.0 8.0 0.00 0.00 0.00 62 1025.4
20181218230856 61 164 5.0 8.0 0.00 0.00 0.00 61 1025.3
20181218230355 61 153 6.0 9.0 0.00 0.00 0.00 60 1025.4
20181218230019 61 153 5.0 10.0 0.00 0.00 0.00 60 1025.4
20181218225911 61 182 6.0 10.0 0.00 0.00 0.00 60 1025.3
20181218225402 61 152 6.0 8.0 0.00 0.00 0.00 60 1025.3
20181218224859 61 160 5.0 10.0 0.00 0.00 0.00 58 1025.3
20181218224532 61 140 5.0 10.0 0.00 0.00 0.00 58 1025.3
20181218224414 61 154 6.0 10.0 0.00 0.00 0.00 60 1025.3
20181218223911 61 148 5.0 10.0 0.00 0.00 0.00 61 1025.3
20181218223407 61 147 6.0 10.0 0.00 0.00 0.00 61 1025.5
20181218223002 61 161 5.0 9.0 0.00 0.00 0.00 62 1025.6
20181218222900 61 162 5.0 9.0 0.00 0.00 0.00 61 1025.6
20181218222358 61 183 6.0 9.0 0.00 0.00 0.00 61 1025.6
20181218221856 61 170 5.0 11.0 0.00 0.00 0.00 60 1025.6
20181218221353 61 152 7.0 11.0 0.00 0.00 0.00 59 1025.5
20181218220856 61 153 8.0 11.0 0.00 0.00 0.00 60 1025.6
20181218220417 61 147 6.0 13.0 0.00 0.00 0.00 59 1025.6
20181218220019 61 159 8.0 13.0 0.00 0.00 0.00 59 1025.6
20181218215912 61 147 9.0 13.0 0.00 0.00 0.00 59 1025.6
20181218215404 61 189 6.0 10.0 0.00 0.00 0.00 60 1025.7
20181218214901 61 188 6.0 11.0 0.00 0.00 0.00 60 1025.7
20181218214506 61 168 7.0 13.0 0.00 0.00 0.00 58 1025.7
20181218214402 61 160 7.0 13.0 0.00 0.00 0.00 59 1025.7
20181218213857 62 199 7.0 11.0 0.00 0.00 0.00 60 1025.7
20181218213413 61 151 7.0 11.0 0.00 0.00 0.00 58 1025.8
20181218213040 61 173 5.0 11.0 0.00 0.00 0.00 60 1025.8
20181218212909 61 157 5.0 11.0 0.00 0.00 0.00 59 1025.7
20181218212408 61 147 5.0 13.0 0.00 0.00 0.00 60 1025.7
20181218211905 61 166 8.0 13.0 0.00 0.00 0.00 60 1025.7
20181218211358 61 143 6.0 12.0 0.00 0.00 0.00 61 1025.6
20181218210855 61 157 7.0 11.0 0.00 0.00 0.00 62 1025.6
20181218210355 61 172 6.0 11.0 0.00 0.00 0.00 63 1025.6
20181218210041 60 159 5.0 12.0 0.00 0.00 0.00 63 1025.7
20181218205912 60 151 4.0 12.0 0.00 0.00 0.00 63 1025.7
20181218205403 60 150 7.0 13.0 0.00 0.00 0.00 63 1025.8
20181218204859 60 164 7.0 0.0 0.00 0.00 0.00 64 1025.9
20181218204356 60 176 6.0 12.0 0.00 0.00 0.00 63 1025.9
20181218203914 60 155 8.0 14.0 0.00 0.00 0.00 64 1026.0
20181218203405 60 160 9.0 14.0 0.00 0.00 0.00 63 1026.1
20181218203010 60 165 9.0 13.0 0.00 0.00 0.00 64 1026.2
20181218202903 60 168 9.0 13.0 0.00 0.00 0.00 64 1026.2
20181218202403 60 175 4.0 9.0 0.00 0.00 0.00 67 1026.2
20181218201904 59 143 4.0 11.0 0.00 0.00 0.00 67 1026.2
20181218201502 59 148 8.0 11.0 0.00 0.00 0.00 66 1026.3
20181218201359 59 173 8.0 13.0 0.00 0.00 0.00 66 1026.2
20181218200903 59 162 7.0 13.0 0.00 0.00 0.00 68 1026.4
20181218200401 59 168 9.0 13.0 0.00 0.00 0.00 67 1026.4
20181218195855 59 182 3.0 11.0 0.00 0.00 0.00 69 1026.5
20181218194909 59 161 7.0 10.0 0.00 0.00 0.00 68 1026.5
20181218194601 58 134 4.0 9.0 0.00 0.00 0.00 71 1026.5
20181218194416 59 126 5.0 9.0 0.00 0.00 0.00 70 1026.5
20181218193908 58 156 5.0 9.0 0.00 0.00 0.00 71 1026.5
20181218193407 58 149 5.0 10.0 0.00 0.00 0.00 73 1026.6
20181218193002 57 161 2.0 10.0 0.00 0.00 0.00 73 1026.6
20181218192901 57 164 4.0 10.0 0.00 0.00 0.00 73 1026.6
20181218192401 57 153 8.0 13.0 0.00 0.00 0.00 72 1026.7
20181218191903 57 143 6.0 13.0 0.00 0.00 0.00 73 1026.8
20181218191507 56 149 8.0 13.0 0.00 0.00 0.00 73 1026.9
20181218191400 57 155 8.0 11.0 0.00 0.00 0.00 73 1026.9
20181218190915 56 150 3.0 12.0 0.00 0.00 0.00 75 1026.9
20181218190408 56 163 8.0 12.0 0.00 0.00 0.00 74 1027.0
20181218190023 56 155 8.0 11.0 0.00 0.00 0.00 74 1027.1
20181218185907 56 161 8.0 14.0 0.00 0.00 0.00 75 1027.0
20181218184901 56 166 7.0 10.0 0.00 0.00 0.00 75 1027.2
20181218184501 55 161 2.0 8.0 0.00 0.00 0.00 76 1027.2
20181218184400 56 180 4.0 9.0 0.00 0.00 0.00 76 1027.1
20181218183902 55 126 4.0 12.0 0.00 0.00 0.00 76 1027.1
20181218183359 55 170 7.0 12.0 0.00 0.00 0.00 76 1027.2
20181218182857 55 128 5.0 10.0 0.00 0.00 0.00 77 1027.2
20181218181854 54 148 7.0 10.0 0.00 0.00 0.00 79 1027.4
20181218181357 54 145 5.0 11.0 0.00 0.00 0.00 80 1027.3
20181218180857 54 155 4.0 11.0 0.00 0.00 0.00 80 1027.4
20181218180356 53 176 5.0 7.0 0.00 0.00 0.00 82 1027.4
20181218175855 53 151 3.0 9.0 0.00 0.00 0.00 82 1027.4
20181218175354 52 164 6.0 9.0 0.00 0.00 0.00 81 1027.4
20181218174855 52 139 6.0 8.0 0.00 0.00 0.00 82 1027.3
20181218174357 52 149 4.0 7.0 0.00 0.00 0.00 83 1027.3
20181218173858 51 147 3.0 6.0 0.00 0.00 0.00 83 1027.4
20181218173357 51 142 2.0 6.0 0.00 0.00 0.00 84 1027.4
20181218172404 50 155 3.0 4.0 0.00 0.00 0.00 84 1027.2
20181218171901 50 138 1.0 5.0 0.00 0.00 0.00 85 1027.2
20181218171401 49 149 2.0 5.0 0.00 0.00 0.00 85 1027.1
20181218170904 49 134 3.0 5.0 0.00 0.00 0.00 85 1027.1
20181218170404 49 151 4.0 5.0 0.00 0.00 0.00 86 1027.0
20181218165855 48 148 2.0 4.0 0.00 0.00 0.00 87 1026.9
20181218165354 48 151 1.0 3.0 0.00 0.00 0.00 88 1026.9
20181218164914 47 145 2.0 3.0 0.00 0.00 0.00 88 1026.9
20181218164529 47 146 1.0 3.0 0.00 0.00 0.00 88 1026.8
20181218164409 47 146 2.0 3.0 0.00 0.00 0.00 88 1026.7
20181218163908 47 145 1.0 2.0 0.00 0.00 0.00 88 1026.8
20181218163410 47 146 1.0 2.0 0.00 0.00 0.00 88 1026.7
20181218163016 46 145 0.0 3.0 0.00 0.00 0.00 88 1026.8
20181218162906 46 145 1.0 4.0 0.00 0.00 0.00 88 1026.7
20181218162404 46 145 2.0 4.0 0.00 0.00 0.00 88 1026.6
20181218161529 46 147 3.0 4.0 0.00 0.00 0.00 88 1026.5
20181218161412 46 147 3.0 4.0 0.00 0.00 0.00 88 1026.5
20181218160404 46 147 2.0 3.0 0.00 0.00 0.00 89 1026.4
20181218160009 45 147 1.0 2.0 0.00 0.00 0.00 89 1026.3
20181218155901 46 147 1.0 2.0 0.00 0.01 0.00 89 1026.2
20181218155359 46 147 0.0 4.0 0.00 0.01 0.00 89 1026.1
20181218154856 46 147 2.0 4.0 0.00 0.01 0.00 89 1026.2
20181218154358 46 147 2.0 4.0 0.00 0.01 0.00 89 1026.1
20181218153857 46 147 3.0 4.0 0.00 0.01 0.00 89 1025.9
20181218153357 46 147 2.0 3.0 0.00 0.01 0.00 89 1025.8
20181218153021 45 147 2.0 3.0 0.00 0.01 0.00 89 1025.9
20181218152912 46 147 2.0 3.0 0.00 0.01 0.00 89 1025.9
20181218152409 46 147 2.0 4.0 0.00 0.01 0.00 89 1025.9
20181218151909 46 142 3.0 5.0 0.00 0.01 0.00 89 1025.7
20181218151514 45 140 3.0 5.0 0.00 0.01 0.00 89 1025.8
20181218151410 46 140 3.0 4.0 0.00 0.01 0.00 89 1025.7
20181218150850 46 139 3.0 4.0 0.00 0.01 0.00 89 1025.6
20181218150411 46 140 1.0 3.0 0.00 0.01 0.00 89 1025.6
20181218150012 46 139 0.0 2.0 0.00 0.01 0.00 89 1025.5
20181218145907 46 139 0.0 2.0 0.00 0.01 0.00 89 1025.4
20181218145407 46 140 1.0 2.0 0.00 0.01 0.00 88 1025.3
20181218144904 46 140 1.0 2.0 0.00 0.01 0.00 89 1025.3
20181218144503 46 140 1.0 4.0 0.00 0.01 0.00 89 1025.3
20181218144401 46 140 1.0 4.0 0.00 0.01 0.00 89 1025.2
20181218143903 46 139 3.0 4.0 0.00 0.01 0.00 88 1025.1
20181218143400 47 140 2.0 4.0 0.00 0.01 0.00 88 1025.1
20181218142857 47 139 2.0 4.0 0.00 0.01 0.00 88 1024.9
20181218142358 47 148 3.0 5.0 0.00 0.01 0.00 89 1024.9
20181218141853 47 151 4.0 5.0 0.00 0.01 0.00 89 1024.8
20181218141352 47 148 3.0 4.0 0.00 0.01 0.00 88 1024.8
20181218140853 47 137 2.0 5.0 0.00 0.01 0.00 88 1024.8
20181218140412 47 134 3.0 5.0 0.00 0.01 0.00 88 1024.7
20181218140015 46 151 3.0 5.0 0.00 0.01 0.00 88 1024.7
20181218135906 47 142 3.0 5.0 0.00 0.01 0.00 88 1024.7
20181218135406 47 145 4.0 6.0 0.00 0.01 0.00 88 1024.7
20181218134905 47 147 3.0 6.0 0.00 0.01 0.00 88 1024.6
20181218134507 46 159 2.0 4.0 0.00 0.01 0.00 88 1024.7
20181218134403 47 159 3.0 4.0 0.00 0.01 0.00 88 1024.7
20181218133900 47 159 3.0 4.0 0.00 0.01 0.00 88 1024.7
20181218133035 47 157 3.0 5.0 0.00 0.01 0.00 88 1024.7
20181218132909 47 157 3.0 5.0 0.00 0.01 0.00 88 1024.7
20181218132407 47 161 4.0 4.0 0.00 0.01 0.00 88 1024.7
20181218131905 47 161 3.0 5.0 0.00 0.01 0.00 88 1024.7
20181218131511 46 162 3.0 5.0 0.00 0.01 0.00 88 1024.7
20181218131405 47 162 3.0 5.0 0.00 0.01 0.00 88 1024.6
20181218130908 47 153 3.0 4.0 0.00 0.01 0.00 87 1024.6
20181218130401 47 153 3.0 4.0 0.00 0.01 0.00 88 1024.6
20181218125854 47 154 2.0 5.0 0.00 0.01 0.00 88 1024.5
20181218125414 47 155 3.0 5.0 0.00 0.01 0.00 88 1024.6
20181218124911 47 156 3.0 4.0 0.00 0.01 0.00 88 1024.7
20181218124518 47 156 2.0 4.0 0.00 0.01 0.00 88 1024.6
20181218124407 47 156 3.0 4.0 0.00 0.01 0.00 88 1024.6
20181218123850 47 156 2.0 3.0 0.00 0.00 0.00 87 1024.6
20181218123414 48 156 2.0 3.0 0.00 0.01 0.00 87 1024.6
20181218123022 47 156 2.0 3.0 0.00 0.01 0.00 87 1024.6
20181218122908 48 156 2.0 3.0 0.00 0.01 0.00 87 1024.6
20181218122406 48 156 2.0 5.0 0.00 0.01 0.00 88 1024.5
20181218121901 48 156 3.0 5.0 0.00 0.01 0.00 88 1024.5
20181218121357 48 156 2.0 3.0 0.00 0.01 0.00 87 1024.6
20181218120914 48 156 2.0 3.0 0.00 0.01 0.00 88 1024.6
20181218120409 48 156 2.0 3.0 0.00 0.01 0.00 88 1024.6
20181218120020 48 156 1.0 3.0 0.00 0.01 0.00 88 1024.5
20181218115903 48 156 1.0 2.0 0.00 0.05 0.00 88 1024.5
20181218115405 48 156 0.0 2.0 0.00 0.05 0.00 88 1024.5
20181218114857 48 157 1.0 2.0 0.00 0.05 0.00 88 1024.6
20181218114357 48 157 0.0 2.0 0.00 0.05 0.00 89 1024.7
20181218113855 48 157 1.0 1.0 0.00 0.05 0.00 88 1024.8
20181218112854 48 157 2.0 2.0 0.00 0.05 0.00 89 1024.9
20181218112352 48 157 2.0 2.0 0.00 0.05 0.00 89 1025.0
20181218111854 48 157 1.0 2.0 0.00 0.05 0.00 89 1025.1
20181218111352 48 157 0.0 2.0 0.00 0.05 0.00 89 1025.1
20181218110851 48 157 0.0 2.0 0.00 0.05 0.00 89 1025.0
20181218110406 48 157 0.0 1.0 0.00 0.05 0.00 89 1025.0
20181218110006 48 157 0.0 0.0 0.00 0.05 0.00 89 1025.1
20181218105900 48 157 0.0 1.0 0.00 0.14 0.00 89 1025.1
20181218105400 48 157 0.0 1.0 0.00 0.14 0.00 89 1025.2
20181218104911 48 157 0.0 1.0 0.00 0.14 0.00 89 1025.2
20181218104522 48 157 0.0 2.0 0.00 0.14 0.00 89 1025.2
20181218104409 48 157 0.0 2.0 0.00 0.14 0.00 89 1025.3
20181218103906 48 157 1.0 2.0 0.00 0.14 0.00 89 1025.1
20181218103402 49 157 1.0 2.0 0.00 0.14 0.00 89 1025.1
20181218103104 48 157 1.0 2.0 0.00 0.14 0.00 89 1025.2
20181218102912 49 157 1.0 2.0 0.00 0.14 0.00 89 1025.3
20181218102351 49 157 1.0 2.0 0.00 0.14 0.00 89 1025.3
20181218101851 49 157 0.0 0.0 0.00 0.14 0.00 89 1025.5
20181218101354 49 157 0.0 1.0 0.00 0.14 0.00 89 1025.6
20181218100908 49 157 1.0 1.0 0.00 0.14 0.00 89 1025.5
20181218100408 49 157 1.0 1.0 0.00 0.14 0.00 89 1025.5
20181218100033 49 157 0.0 0.0 0.00 0.14 0.00 89 1025.5
20181218095908 49 157 0.0 1.0 0.00 0.29 0.00 89 1025.5
20181218095409 49 157 0.0 2.0 0.00 0.29 0.00 89 1025.4
20181218094902 49 157 1.0 2.0 0.00 0.29 0.00 88 1025.3
20181218094358 49 157 0.0 1.0 0.00 0.29 0.00 88 1025.3
20181218093900 49 157 1.0 2.0 0.00 0.29 0.00 88 1025.3
20181218093355 49 157 0.0 2.0 0.00 0.29 0.00 88 1025.2
20181218093024 49 157 1.0 2.0 0.00 0.28 0.00 89 1025.2
20181218092906 49 157 2.0 2.0 0.00 0.29 0.00 89 1025.2
20181218092405 49 157 2.0 2.0 0.00 0.29 0.00 89 1025.2
20181218091903 49 157 2.0 2.0 0.00 0.29 0.00 89 1025.1
20181218091406 49 157 1.0 2.0 0.00 0.29 0.00 89 1025.1
20181218090901 49 157 1.0 2.0 0.00 0.29 0.00 89 1025.1
20181218090359 49 157 1.0 2.0 0.00 0.29 0.00 89 1025.0
20181218085855 49 157 0.0 1.0 0.00 0.40 0.00 89 1025.0
20181218085354 50 157 0.0 1.0 0.00 0.40 0.00 89 1025.1
20181218084908 50 157 1.0 2.0 0.00 0.40 0.00 89 1025.0
20181218084518 49 157 0.0 2.0 0.00 0.40 0.00 89 1025.0
20181218084409 50 157 1.0 2.0 0.00 0.40 0.00 89 1025.0
20181218083908 50 157 0.0 1.0 0.00 0.40 0.00 89 1025.0
20181218083407 50 157 1.0 1.0 0.00 0.40 0.00 89 1025.0
20181218083006 49 157 0.0 0.0 0.00 0.40 0.00 89 1025.0
20181218082900 50 157 0.0 0.0 0.00 0.40 0.00 89 1025.0
20181218082359 50 157 0.0 0.0 0.00 0.40 0.00 89 1025.0
20181218081858 50 157 0.0 0.0 0.00 0.40 0.00 89 1025.0
20181218081357 50 157 0.0 0.0 0.00 0.40 0.00 89 1025.0
20181218080856 50 157 0.0 0.0 0.00 0.40 0.00 89 1025.0
20181218080356 50 157 0.0 0.0 0.00 0.40 0.00 88 1024.9
20181218075856 50 157 0.0 0.0 0.00 0.45 0.40 88 1024.9
20181218075353 50 157 0.0 1.0 0.00 0.45 0.40 88 1024.9
20181218074854 50 157 1.0 1.0 0.00 0.45 0.40 88 1024.8
20181218074531 50 157 0.0 1.0 0.00 0.45 0.40 88 1024.8
20181218074410 50 157 0.0 1.0 0.00 0.45 0.40 88 1024.8
20181218073908 51 157 0.0 1.0 0.00 0.45 0.40 88 1024.8
20181218073407 51 157 0.0 1.0 0.00 0.45 0.40 88 1024.7
20181218073011 50 157 0.0 1.0 0.00 0.45 0.40 88 1024.7
20181218072903 51 157 1.0 1.0 0.00 0.45 0.40 88 1024.7
20181218072400 51 157 0.0 1.0 0.00 0.45 0.40 88 1024.7
20181218071902 51 157 0.0 1.0 0.00 0.00 0.40 88 1024.7
20181218071509 50 157 0.0 1.0 0.00 0.45 0.40 88 1024.7
20181218071405 51 157 0.0 1.0 0.00 0.45 0.40 88 1024.6
20181218070905 51 157 0.0 1.0 0.00 0.45 0.40 88 1024.6
20181218070401 51 157 0.0 0.0 0.00 0.45 0.40 88 1024.6
20181218065859 51 157 0.0 1.0 0.00 0.46 0.40 87 1024.5
20181218065355 51 157 0.0 1.0 0.00 0.46 0.40 88 1024.4
20181218064854 51 157 0.0 1.0 0.00 0.46 0.40 88 1024.4
20181218064354 51 157 1.0 1.0 0.00 0.46 0.40 88 1024.4
20181218063853 51 157 0.0 1.0 0.00 0.46 0.40 88 1024.4
20181218063413 51 157 0.0 1.0 0.00 0.46 0.40 88 1024.3
20181218063024 50 157 0.0 1.0 0.00 0.46 0.40 87 1024.2
20181218062910 51 157 1.0 1.0 0.00 0.46 0.40 87 1024.3
20181218062408 51 157 1.0 1.0 0.00 0.46 0.40 87 1024.2
20181218061909 51 157 0.0 0.0 0.00 0.46 0.40 87 1024.1
20181218061521 50 157 0.0 0.0 0.00 0.46 0.40 87 1024.0
20181218061407 51 157 0.0 0.0 0.00 0.46 0.40 87 1024.1
20181218060906 51 157 0.0 2.0 0.00 0.46 0.40 87 1024.0
20181218060407 51 157 0.0 2.0 0.00 0.46 0.40 87 1024.0
20181218060001 51 157 0.0 2.0 0.00 0.46 0.40 86 1024.0
20181218055859 51 157 1.0 2.0 0.00 0.53 0.40 86 1024.0
20181218055356 51 157 1.0 2.0 0.00 0.53 0.40 87 1023.9
20181218054856 51 157 1.0 1.0 0.00 0.53 0.40 86 1024.1
20181218054507 51 157 0.0 1.0 0.00 0.53 0.40 86 1024.1
20181218054400 52 157 1.0 1.0 0.00 0.53 0.40 86 1024.1
20181218053859 52 157 0.0 0.0 0.00 0.53 0.40 86 1024.2
20181218053357 52 157 0.0 1.0 0.00 0.53 0.40 86 1024.2
20181218052851 52 157 0.0 1.0 0.00 0.53 0.40 86 1024.0
20181218052354 52 157 0.0 2.0 0.00 0.53 0.40 85 1024.0
20181218051853 52 157 1.0 2.0 0.00 0.53 0.40 85 1024.0
20181218051353 52 157 0.0 1.0 0.00 0.53 0.40 85 1024.0
20181218050908 52 157 1.0 1.0 0.00 0.53 0.40 85 1023.9
20181218050405 52 157 0.0 1.0 0.00 0.53 0.40 85 1023.8
20181218050007 52 157 0.0 2.0 0.00 0.53 0.40 85 1023.9
20181218045901 52 157 0.0 2.0 0.00 0.55 0.40 85 1023.8
20181218045358 52 157 1.0 2.0 0.00 0.55 0.40 84 1023.8
20181218044853 52 157 2.0 2.0 0.00 0.55 0.40 84 1023.9
20181218044351 53 157 1.0 2.0 0.00 0.55 0.40 85 1023.8
20181218043911 53 157 2.0 2.0 0.00 0.55 0.40 85 1023.9
20181218043403 53 157 1.0 2.0 0.00 0.55 0.40 85 1023.9
20181218042857 53 157 0.0 2.0 0.00 0.55 0.40 84 1023.8
20181218042354 53 157 0.0 3.0 0.00 0.55 0.40 84 1023.7
20181218041855 53 157 2.0 3.0 0.00 0.55 0.40 85 1023.7
20181218041353 53 157 2.0 3.0 0.00 0.55 0.40 85 1023.7
20181218040908 53 157 2.0 3.0 0.00 0.55 0.40 86 1023.6
20181218040407 53 157 1.0 2.0 0.00 0.55 0.40 86 1023.8
20181218040002 52 157 0.0 2.0 0.00 0.55 0.40 86 1024.0
20181218035859 53 157 1.0 2.0 0.00 0.71 0.40 86 1024.0
20181218035357 52 157 1.0 2.0 0.00 0.71 0.40 86 1023.9
20181218034854 53 157 0.0 2.0 0.00 0.71 0.40 86 1023.7
20181218034351 53 157 0.0 2.0 0.00 0.71 0.40 86 1023.8
20181218033909 53 157 1.0 2.0 0.00 0.71 0.40 86 1023.6
20181218033401 53 157 0.0 0.0 0.00 0.71 0.40 85 1023.8
20181218032859 53 157 0.0 2.0 0.00 0.71 0.40 85 1023.8
20181218032358 53 157 1.0 2.0 0.00 0.71 0.40 85 1023.7
20181218031855 53 157 1.0 2.0 0.00 0.71 0.40 84 1023.5
20181218031352 53 157 1.0 3.0 0.00 0.71 0.40 84 1023.4
20181218030909 53 157 1.0 3.0 0.00 0.71 0.40 83 1023.3
20181218030405 53 157 2.0 2.0 0.00 0.71 0.40 82 1023.3
20181218030016 53 157 1.0 2.0 0.00 0.71 0.40 82 1023.5
20181218025903 54 157 1.0 2.0 0.00 1.07 0.40 82 1023.6
20181218025402 54 157 1.0 3.0 0.00 1.07 0.40 81 1023.4
20181218024859 54 157 2.0 3.0 0.00 1.07 0.40 81 1023.4
20181218024355 54 157 2.0 3.0 0.00 1.07 0.40 81 1023.3
20181218023854 54 157 1.0 2.0 0.00 1.07 0.40 80 1023.5
20181218023407 55 157 0.0 0.0 0.00 1.07 0.40 79 1023.6
20181218023015 54 157 0.0 0.0 0.00 1.07 0.40 79 1023.7
20181218022402 55 157 0.0 1.0 0.00 1.07 0.40 78 1023.6
20181218021900 55 157 1.0 2.0 0.00 1.07 0.40 78 1023.4
20181218021355 55 157 1.0 2.0 0.00 1.07 0.40 78 1023.3